15min,AgWx,evansfrm,411,03FEB2018:00:00:00,44.1,12.7,46.4,46.3,47.3,47.9,46.3,64,68,62,0.723,35.7,36.2,35.3,2.762,3.1,157,16,5.0,0.00019,0.00027,38.5,37.0,31,0,0,51.0,15.51,0.00,0.00
15min,AgWx,evansfrm,411,03FEB2018:00:15:00,44.4,12.62,48.3,48.1,47.3,48.2,45.8,64,68,61,0.698,35.6,36.2,35.1,4.187,3.9,198,14,5.5,0.00022,0.00030,38.4,37.0,32,0,0,51.0,15.51,0.00,0.00
15min,AgWx,evansfrm,411,03FEB2018:00:30:00,45.0,12.7,49.7,49.5,48.6,49.8,47.6,60,62,56,0.686,35.2,35.5,34.8,6.072,5.0,209,16,9.4,0.00029,0.00038,38.4,36.9,31,0,0,51.5,15.51,0.00,0.00
15min,AgWx,evansfrm,411,03FEB2018:00:45:00,45.6,12.69,48.7,48.4,49.1,49.9,48.4,58,60,56,0.687,35.0,35.2,34.8,4.034,4.1,232,17,8.4,0.00027,0.00037,38.5,36.7,32,0,0,51.8,15.51,0.00,0.00
15min,AgWx,evansfrm,411,03FEB2018:01:00:00,45.9,12.7,47.3,47.2,48.0,48.9,47.2,61,63,59,0.689,35.1,35.3,34.9,0,2.2,275,37,6.0,0.00017,0.00025,38.4,36.7,31,0,0,50.9,15.51,0.00,0.00
15min,AgWx,evansfrm,411,03FEB2018:01:15:00,45.7,12.7,46.8,46.7,47.1,47.4,46.7,62,63,62,0.679,34.9,35.1,34.6,2.455,1.8,40,53,3.7,0.00013,0.00020,38.4,36.9,31,0,0,49.8,15.51,0.00,0.00
15min,AgWx,evansfrm,411,03FEB2018:01:30:00,45.5,12.69,46.2,45.9,46.1,46.9,44.8,65,69,63,0.700,35.1,35.6,34.7,1.118,2.5,121,17,3.9,0.00016,0.00022,38.4,36.7,31,0,0,50.1,15.51,0.00,0.00
15min,AgWx,evansfrm,411,03FEB2018:01:45:00,45.0,12.7,45.0,44.5,45.6,46.4,44.5,68,71,66,0.704,35.6,35.9,35.4,2.192,2.2,38,25,3.5,0.00013,0.00019,38.3,36.9,31,0,87,47.7,15.51,0.00,0.00
15min,AgWx,evansfrm,411,03FEB2018:02:00:00,44.3,12.7,43.6,43.7,44.4,45.4,43.5,73,76,70,0.733,36.1,36.6,35.6,1.885,1.7,68,19,3.1,0.00009,0.00013,38.4,36.9,31,0,100,46.5,15.52,0.00,0.00
15min,AgWx,evansfrm,411,03FEB2018:02:15:00,43.7,12.69,43.2,43.1,42.7,43.6,42.3,82,84,76,0.787,37.6,38.5,36.4,3.047,2.8,40,23,5.1,0.00008,0.00011,38.3,36.7,31,0,100,44.9,15.52,0.00,0.00
15min,AgWx,evansfrm,411,03FEB2018:02:30:00,43.2,12.69,43.5,43.4,43.4,43.9,42.9,82,83,80,0.770,38.2,38.6,37.8,1.118,3.0,76,11,5.3,0.00009,0.00012,38.3,36.9,31,0,100,46.0,15.52,0.00,0.00
15min,AgWx,evansfrm,411,03FEB2018:02:45:00,43.0,12.68,44.8,44.4,43.9,44.6,43.1,78,81,75,0.749,37.5,38.0,37.1,3.88,2.8,67,22,4.2,0.00010,0.00014,38.4,36.7,31,0,100,47.3,15.51,0.00,0.00
15min,AgWx,evansfrm,411,03FEB2018:03:00:00,42.9,12.68,46.2,46.0,45.5,46.0,44.4,71,75,68,0.720,36.5,37.1,36.1,4.253,3.6,26,28,7.0,0.00016,0.00022,38.4,36.7,31,0,100,48.4,15.51,0.00,0.00
15min,AgWx,evansfrm,411,03FEB2018:03:15:00,43.4,12.69,47.3,47.2,47.1,47.5,46.1,64,68,63,0.699,35.5,36.1,35.2,4.845,3.9,346,21,6.7,0.00022,0.00030,38.4,36.7,31,0,44,49.3,15.51,0.00,0.00
15min,AgWx,evansfrm,411,03FEB2018:03:30:00,43.8,12.69,46.7,46.7,46.7,47.3,46.1,65,66,63,0.704,35.5,35.7,35.2,4.143,3.1,318,21,6.1,0.00018,0.00026,38.3,36.7,31,0,0,49.6,15.51,0.00,0.00
15min,AgWx,evansfrm,411,03FEB2018:03:45:00,44.3,12.68,47.4,47.3,47.4,47.8,46.7,63,65,62,0.700,35.3,35.7,35.1,1.03,3.3,345,30,5.9,0.00020,0.00028,38.3,36.7,31,0,0,50.1,15.51,0.00,0.00
15min,AgWx,evansfrm,411,03FEB2018:04:00:00,44.3,12.69,46.7,47.0,47.0,47.5,46.2,63,65,62,0.691,35.2,35.6,34.9,0.132,1.1,358,43,4.2,0.00009,0.00014,38.2,36.7,31,0,0,49.3,15.51,0.00,0.00
15min,AgWx,evansfrm,411,03FEB2018:04:15:00,44.3,12.68,46.3,46.2,46.7,47.2,46.1,63,65,62,0.688,34.9,35.2,34.7,1.25,1.7,56,60,3.8,0.00013,0.00019,38.3,36.7,31,0,0,49.6,15.51,0.00,0.00
15min,AgWx,evansfrm,411,03FEB2018:04:30:00,44.3,12.69,45.5,45.1,45.9,46.7,45.1,65,68,63,0.694,35.0,35.2,34.6,1.162,1.3,284,56,3.3,0.00010,0.00015,38.2,36.9,31,0,0,49.9,15.51,0.00,0.00
15min,AgWx,evansfrm,411,03FEB2018:04:45:00,44.3,12.69,45.1,45.2,44.8,46.2,43.9,68,71,65,0.684,35.1,35.5,34.8,2.083,2.2,321,26,3.8,0.00013,0.00018,38.3,36.7,31,0,0,48.7,15.51,0.00,0.00
15min,AgWx,evansfrm,411,03FEB2018:05:00:00,43.9,12.69,43.5,43.5,43.9,45.3,43.4,72,73,67,0.697,35.3,35.5,34.8,2.105,1.6,12,6.8,2.7,0.00009,0.00013,38.2,36.7,31,0,0,47.8,15.52,0.00,0.00
15min,AgWx,evansfrm,411,03FEB2018:05:15:00,43.5,12.68,43.1,42.6,43.3,43.7,42.6,73,74,72,0.684,35.2,35.3,34.8,0,2.5,52,9.8,4.1,0.00012,0.00016,38.2,36.7,31,0,0,46.6,15.52,0.00,0.00
15min,AgWx,evansfrm,411,03FEB2018:05:30:00,43.0,12.69,42.5,42.5,42.0,42.7,41.2,76,78,74,0.705,35.1,35.7,34.6,5.086,4.1,73,5.0,5.7,0.00013,0.00017,38.1,36.9,31,0,0,46.0,15.52,0.00,0.00
15min,AgWx,evansfrm,411,03FEB2018:05:45:00,42.9,12.68,45.4,45.3,44.0,45.3,42.6,71,76,67,0.687,35.3,35.7,34.9,7.366,4.9,78,6.9,7.4,0.00018,0.00024,38.1,36.5,31,0,0,47.5,15.51,0.00,0.00
15min,AgWx,evansfrm,411,03FEB2018:06:00:00,43.2,12.62,45.0,44.7,45.7,46.4,44.7,65,68,63,0.680,34.6,34.9,34.4,3.069,3.5,32,21,7.9,0.00019,0.00026,38.1,36.7,31,0,0,48.4,15.52,0.00,0.00
15min,AgWx,evansfrm,411,03FEB2018:06:15:00,43.2,12.68,43.9,43.8,44.0,44.7,43.5,70,71,68,0.690,34.8,35.1,34.6,2.017,3.4,19,24,6.8,0.00016,0.00022,38.1,36.7,31,0,0,47.2,15.51,0.00,0.00
15min,AgWx,evansfrm,411,03FEB2018:06:30:00,43.2,12.68,44.6,44.4,44.8,45.8,43.7,68,71,65,0.684,34.8,35.0,34.6,3.091,3.0,349,30,9.0,0.00016,0.00022,38.1,36.5,31,0,0,47.9,15.51,0.00,0.00
15min,AgWx,evansfrm,411,03FEB2018:06:45:00,43.2,12.68,43.3,43.0,43.8,44.6,43.0,71,73,69,0.688,35.0,35.2,34.8,0,2.2,0.7,31,5.4,0.00011,0.00016,38.1,36.7,31,0,0,47.3,15.52,0.00,0.00
15min,AgWx,evansfrm,411,03FEB2018:07:00:00,42.9,12.68,44.3,44.1,43.4,44.1,43.0,72,73,69,0.678,35.0,35.2,34.6,2.587,1.1,71,31,3.4,0.00006,0.00010,38.1,36.5,31,0,0,47.5,15.52,0.00,0.00
15min,AgWx,evansfrm,411,03FEB2018:07:15:00,42.7,12.67,42.1,41.9,43.1,44.4,41.9,72,74,68,0.671,34.5,34.8,34.2,0.986,2.4,245,58,5.7,0.00012,0.00017,38.0,36.7,31,0,0,46.4,15.52,0.00,0.00
15min,AgWx,evansfrm,411,03FEB2018:07:30:00,41.8,12.68,39.7,39.7,40.9,41.9,39.7,76,79,74,0.656,34.0,34.5,33.6,0,0.8,295,25,3.0,0.00004,0.00007,38.0,36.7,31,1,0,43.1,15.52,0.00,0.00
15min,AgWx,evansfrm,411,03FEB2018:07:45:00,40.6,12.67,37.4,37.0,39.2,40.2,37.0,80,83,78,0.616,33.5,34.3,31.8,3.354,1.7,90,11,3.6,0.00006,0.00010,37.9,36.7,31,4,0,41.5,15.52,0.00,0.00
15min,AgWx,evansfrm,411,03FEB2018:08:00:00,39.8,12.69,39.1,39.0,38.9,40.4,37.0,82,85,79,0.662,33.9,35.3,32.3,4.012,4.7,135,15,6.4,-0.00017,-0.00008,38.0,36.7,31,18,0,42.4,15.52,0.00,0.00
15min,AgWx,evansfrm,411,03FEB2018:08:15:00,39.5,12.71,39.0,38.8,38.7,39.4,38.2,84,86,82,0.675,34.4,35.0,33.9,3.069,2.7,143,20,4.1,-0.00013,-0.00008,37.8,36.5,31,50,0,43.8,15.52,0.00,0.00
15min,AgWx,evansfrm,411,03FEB2018:08:30:00,39.5,12.73,40.3,40.2,39.9,40.4,39.0,83,85,82,0.690,35.0,35.3,34.6,2.784,3.7,104,6.7,4.5,0.00006,0.00014,37.7,36.7,31,64,0,45.6,15.52,0.00,0.00
15min,AgWx,evansfrm,411,03FEB2018:08:45:00,39.9,12.91,40.5,40.4,39.6,40.4,38.8,84,86,82,0.713,35.1,35.9,34.4,0,1.5,349,44,4.0,0.00014,0.00019,37.7,36.5,31,97,0,45.4,15.52,0.00,0.00
15min,AgWx,evansfrm,411,03FEB2018:09:00:00,41.0,13.12,42.1,42.1,41.0,42.1,40.3,81,84,79,0.718,35.7,36.1,35.0,3.814,1.0,62,51,4.0,0.00029,0.00034,37.7,36.7,31,117,0,47.8,15.51,0.00,0.00
15min,AgWx,evansfrm,411,03FEB2018:09:15:00,43.2,13.3,44.2,44.1,42.3,44.1,41.5,80,82,76,0.745,36.6,37.4,36.1,4.889,4.1,201,17,5.5,0.00060,0.00074,37.7,36.5,31,196,0,49.3,15.51,0.00,0.00
15min,AgWx,evansfrm,411,03FEB2018:09:30:00,45.5,13.43,45.6,45.3,44.4,45.3,43.8,73,76,71,0.735,36.1,36.9,35.5,4.669,4.9,158,7.4,6.3,0.00100,0.00125,37.6,36.7,31,266,0,51.5,15.51,0.00,0.00
15min,AgWx,evansfrm,411,03FEB2018:09:45:00,47.8,13.18,46.6,46.3,46.1,46.6,45.3,69,72,67,0.724,36.6,37.3,36.1,3.113,3.4,179,15,6.4,0.00095,0.00117,37.6,36.7,31,221,0,54.5,15.51,0.00,0.00
15min,AgWx,evansfrm,411,03FEB2018:10:00:00,49.6,13.46,49.2,48.9,47.9,49.0,46.4,65,69,62,0.760,36.7,37.5,36.1,6.226,3.5,165,19,7.5,0.00127,0.00154,37.6,36.5,31,295,0,56.0,15.51,0.00,0.00
15min,AgWx,evansfrm,411,03FEB2018:10:15:00,52.0,13.42,49.7,49.4,49.3,50.1,48.7,61,65,58,0.695,36.4,37.6,35.2,3.902,5.7,174,13,8.1,0.00163,0.00206,37.7,36.5,31,344,0,58.5,15.51,0.00,0.00
15min,AgWx,evansfrm,411,03FEB2018:10:30:00,53.3,13.22,49.5,49.3,49.4,49.9,49.0,59,63,57,0.713,35.7,37.5,34.4,3.661,4.9,190,18,7.7,0.00138,0.00177,37.7,36.5,31,244,0,61.9,15.51,0.00,0.00
15min,AgWx,evansfrm,411,03FEB2018:10:45:00,53.1,13.14,49.3,49.1,49.1,49.4,48.9,58,60,56,0.663,34.9,35.9,33.9,2.236,4.3,196,13,6.6,0.00103,0.00137,37.7,36.3,31,133,0,58.6,15.51,0.00,0.00
15min,AgWx,evansfrm,411,03FEB2018:11:00:00,52.9,13.14,50.0,49.7,49.5,49.9,49.1,58,61,56,0.716,35.3,36.5,34.1,5.152,3.3,174,18,5.7,0.00113,0.00142,37.9,36.3,31,177,0,61.0,15.51,0.00,0.00
15min,AgWx,evansfrm,411,03FEB2018:11:15:00,52.8,13.15,49.5,49.4,49.4,49.9,49.3,58,60,57,0.696,35.4,36.4,34.7,8.79,7.3,205,13,10.2,0.00139,0.00190,38.1,36.7,31,193,0,58.9,15.52,0.00,0.00
15min,AgWx,evansfrm,411,03FEB2018:11:30:00,52.5,13.12,49.3,49.1,49.2,49.5,48.9,59,61,57,0.725,35.5,36.4,34.5,6.73,7.2,204,16,11.7,0.00130,0.00180,38.3,36.3,31,166,0,57.9,15.51,0.00,0.00
15min,AgWx,evansfrm,411,03FEB2018:11:45:00,52.2,13.09,49.2,49.0,49.0,49.1,48.8,60,63,58,0.705,35.6,36.9,34.6,7.804,9.2,182,11,13.1,0.00132,0.00188,38.4,36.7,31,151,0,56.7,15.52,0.00,0.00
15min,AgWx,evansfrm,411,03FEB2018:12:00:00,51.8,13.09,49.0,48.9,48.8,49.0,48.7,59,61,57,0.697,35.2,36.0,34.5,8.4,9.6,194,9.9,14.1,0.00130,0.00188,38.6,36.7,31,136,0,56.0,15.52,0.00,0.00
15min,AgWx,evansfrm,411,03FEB2018:12:15:00,51.6,13.07,49.2,49.0,49.0,49.1,48.8,59,60,57,0.693,35.2,35.8,34.6,8.77,8.7,202,9.5,13.1,0.00130,0.00186,38.7,36.7,31,142,0,56.5,15.52,0.00,0.00
15min,AgWx,evansfrm,411,03FEB2018:12:30:00,51.4,13.05,49.2,48.9,49.0,49.1,48.8,59,61,57,0.679,35.1,36.0,34.3,8.88,9.9,196,8.2,14.0,0.00128,0.00188,38.9,36.5,31,124,0,55.8,15.52,0.00,0.00
15min,AgWx,evansfrm,411,03FEB2018:12:45:00,51.2,13.07,49.2,49.1,49.0,49.1,48.9,57,59,56,0.678,34.6,35.5,33.9,11.55,10.3,188,8.8,13.8,0.00139,0.00203,39.0,36.7,31,145,0,56.3,15.52,0.00,0.00
15min,AgWx,evansfrm,411,03FEB2018:13:00:00,51.1,13.03,49.2,49.1,49.0,49.1,48.8,58,60,56,0.701,34.9,35.9,34.3,5.305,8.6,191,8.7,12.5,0.00124,0.00180,39.3,36.7,31,121,0,56.2,15.52,0.00,0.00
15min,AgWx,evansfrm,411,03FEB2018:13:15:00,50.9,12.96,49.1,48.8,48.9,49.1,48.5,59,62,57,0.671,35.1,36.3,34.3,8.64,6.8,189,9.0,9.6,0.00094,0.00139,39.3,36.7,31,79,0,55.1,15.52,0.00,0.00
15min,AgWx,evansfrm,411,03FEB2018:13:30:00,50.6,13,48.9,48.8,48.8,49.0,48.5,59,62,57,0.688,35.3,36.2,34.5,6.16,6.7,177,12,9.0,0.00088,0.00132,39.4,36.7,31,68,0,54.4,15.52,0.00,0.00
15min,AgWx,evansfrm,411,03FEB2018:13:45:00,50.4,13,49.2,49.0,48.9,49.1,48.7,59,61,57,0.698,35.3,36.0,34.5,5.985,6.1,170,12,8.2,0.00088,0.00130,39.6,36.9,31,76,0,54.7,15.52,0.00,0.00
15min,AgWx,evansfrm,411,03FEB2018:14:00:00,50.5,13.05,49.7,49.4,49.2,49.5,49.0,58,61,56,0.684,35.3,36.4,34.4,4.911,6.2,164,9.6,8.3,0.00115,0.00160,39.7,36.9,31,133,0,56.6,15.52,0.00,0.00
15min,AgWx,evansfrm,411,03FEB2018:14:15:00,51.1,13.11,50.6,50.5,50.0,50.6,49.4,57,60,54,0.702,35.6,36.8,34.1,6.664,4.9,152,13,7.5,0.00129,0.00170,39.7,37.0,31,189,0,59.5,15.52,0.00,0.00
15min,AgWx,evansfrm,411,03FEB2018:14:30:00,51.9,13.17,51.3,51.0,50.8,51.3,50.4,55,57,53,0.684,35.1,36.2,34.1,5.678,7.0,151,22,11.3,0.00159,0.00215,39.8,36.9,31,233,0,60.2,15.51,0.00,0.00
15min,AgWx,evansfrm,411,03FEB2018:14:45:00,52.5,13.16,51.2,51.1,51.1,51.5,50.7,53,56,51,0.659,34.7,36.4,33.6,10.94,9.1,170,9.9,13.6,0.00164,0.00233,40.0,37.2,31,216,0,59.5,15.52,0.00,0.00
15min,AgWx,evansfrm,411,03FEB2018:15:00:00,52.9,13.14,51.6,51.5,51.3,51.6,51.0,52,55,50,0.683,34.4,35.8,33.1,6.401,8.5,164,14,12.3,0.00157,0.00223,40.0,37.0,31,200,0,59.2,15.52,0.00,0.00
15min,AgWx,evansfrm,411,03FEB2018:15:15:00,53.2,13.16,51.9,51.7,51.6,51.8,51.4,52,54,49,0.655,34.4,35.6,32.9,8.37,7.5,169,12,11.6,0.00141,0.00203,40.2,37.2,31,169,0,59.1,15.52,0.00,0.00
15min,AgWx,evansfrm,411,03FEB2018:15:30:00,53.5,13.22,52.4,52.4,52.1,52.4,51.8,51,54,49,0.689,34.5,35.9,33.4,8.81,7.8,162,9.6,9.8,0.00151,0.00215,40.3,37.4,31,200,0,59.4,15.52,0.00,0.00
15min,AgWx,evansfrm,411,03FEB2018:15:45:00,53.8,13.1,52.4,52.2,52.2,52.5,51.9,51,54,48,0.698,34.5,35.8,33.2,6.116,8.0,160,11,11.5,0.00135,0.00201,40.4,37.4,31,145,0,58.7,15.52,0.00,0.00
15min,AgWx,evansfrm,411,03FEB2018:16:00:00,53.7,13.05,51.9,51.7,51.9,52.2,51.6,52,55,50,0.661,34.9,36.3,33.9,6.862,7.5,165,11,10.7,0.00112,0.00172,40.5,37.2,31,89,0,57.8,15.52,0.00,0.00
15min,AgWx,evansfrm,411,03FEB2018:16:15:00,53.3,13.01,51.7,51.4,51.7,52.0,51.4,52,55,49,0.677,34.5,36.1,33.5,5.744,6.4,159,12,8.6,0.00089,0.00141,40.7,37.4,31,42,0,56.2,15.52,0.00,0.00
15min,AgWx,evansfrm,411,03FEB2018:16:30:00,52.9,12.98,51.1,51.0,51.1,51.5,50.7,55,58,53,0.704,35.3,36.7,34.7,4.297,4.9,157,12,6.6,0.00072,0.00112,40.8,37.6,31,42,0,55.8,15.52,0.00,0.00
15min,AgWx,evansfrm,411,03FEB2018:16:45:00,52.4,12.96,50.7,50.6,50.9,51.0,50.5,55,58,53,0.704,35.4,36.2,34.6,2.214,3.3,146,9.8,5.3,0.00052,0.00080,40.9,37.4,31,30,0,55.6,15.52,0.00,0.00
15min,AgWx,evansfrm,411,03FEB2018:17:00:00,51.8,12.94,49.8,49.9,50.1,50.6,49.7,58,59,56,0.706,35.9,36.6,35.2,0,0.5,131,7.7,2.1,0.00017,0.00022,40.9,37.6,31,17,0,55.3,15.52,0.00,0.00
15min,AgWx,evansfrm,411,03FEB2018:17:15:00,51.1,12.92,48.6,48.5,49.0,49.9,48.5,60,64,58,0.728,35.9,37.7,34.9,1.096,1.0,65,27,2.0,0.00017,0.00025,41.0,37.4,31,11,0,54.4,15.52,0.00,0.00
15min,AgWx,evansfrm,411,03FEB2018:17:30:00,50.5,12.9,49.0,49.1,48.6,49.2,47.9,61,64,58,0.689,35.7,36.6,34.4,2.587,1.6,72,48,2.7,0.00020,0.00032,41.1,37.6,31,6,0,53.4,15.52,0.00,0.00
15min,AgWx,evansfrm,411,03FEB2018:17:45:00,49.9,12.89,48.0,47.9,48.7,49.3,47.8,61,64,58,0.723,36.0,36.9,35.3,2.696,2.5,136,18,3.3,0.00025,0.00043,41.1,37.6,31,2,0,52.6,15.52,0.00,0.00
15min,AgWx,evansfrm,411,03FEB2018:18:00:00,49.1,12.88,46.9,46.9,47.3,47.9,46.8,65,68,64,0.731,36.3,36.9,36.0,3.639,3.3,136,3.9,4.3,0.00012,0.00018,41.1,37.8,31,1,0,51.1,15.52,0.00,0.00
15min,AgWx,evansfrm,411,03FEB2018:18:15:00,48.5,12.86,47.2,47.3,47.1,47.7,46.7,66,68,63,0.724,36.3,36.9,35.4,2.784,2.9,156,11,3.9,0.00010,0.00015,41.1,37.8,31,0,0,51.2,15.52,0.00,0.00
15min,AgWx,evansfrm,411,03FEB2018:18:30:00,48.1,12.86,48.8,49.0,48.5,49.2,47.3,60,65,57,0.698,35.4,36.3,34.7,3.179,3.0,155,13,3.8,0.00013,0.00020,41.1,37.6,31,0,0,51.9,15.52,0.00,0.00
15min,AgWx,evansfrm,411,03FEB2018:18:45:00,47.9,12.84,48.1,48.2,48.0,49.0,47.5,62,64,59,0.678,35.5,36.1,34.6,3.551,3.9,132,13,4.5,0.00017,0.00024,41.0,37.9,31,0,0,51.6,15.52,0.00,0.00
15min,AgWx,evansfrm,411,03FEB2018:19:00:00,47.5,12.76,45.6,45.1,47.2,48.6,45.1,63,71,58,0.724,35.4,36.4,34.5,0,3.0,138,32,4.7,0.00012,0.00018,41.0,37.9,31,0,0,50.8,15.52,0.00,0.00
15min,AgWx,evansfrm,411,03FEB2018:19:15:00,46.9,12.82,45.1,45.2,45.3,46.2,45.0,70,71,67,0.702,36.0,36.4,35.4,0,0.6,23,49,2.3,-0.00005,-0.00007,41.0,37.9,31,0,0,49.3,15.52,0.00,0.00
15min,AgWx,evansfrm,411,03FEB2018:19:30:00,46.4,12.81,45.2,45.0,45.4,45.9,44.8,69,72,67,0.716,35.8,36.3,35.3,2.411,1.8,160,44,3.2,0.00003,0.00005,40.9,37.9,31,0,0,49.5,15.52,0.00,0.00
15min,AgWx,evansfrm,411,03FEB2018:19:45:00,45.8,12.8,45.0,45.0,44.9,45.1,44.6,70,71,69,0.706,35.8,36.0,35.4,4.143,2.2,136,32,4.1,0.00005,0.00008,40.9,37.9,31,0,0,48.8,15.52,0.00,0.00
15min,AgWx,evansfrm,411,03FEB2018:20:00:00,45.6,12.78,45.5,45.3,45.7,46.2,45.0,67,70,66,0.708,35.6,35.9,35.2,3.573,4.2,97,11,5.7,0.00014,0.00019,40.9,38.1,31,0,0,49.4,15.52,0.00,0.00
15min,AgWx,evansfrm,411,03FEB2018:20:15:00,45.5,12.77,44.1,43.6,45.6,47.3,43.6,68,74,62,0.709,35.5,36.0,34.9,3.047,3.8,133,41,5.6,0.00013,0.00018,40.7,38.1,31,0,0,49.5,15.52,0.00,0.00
15min,AgWx,evansfrm,411,03FEB2018:20:30:00,45.1,12.77,45.4,45.6,44.3,45.6,43.7,73,74,69,0.717,36.1,36.3,35.8,4.845,3.6,156,14,5.3,0.00009,0.00012,40.7,38.1,31,0,0,48.1,15.52,0.00,0.00
15min,AgWx,evansfrm,411,03FEB2018:20:45:00,45.0,12.76,45.5,45.4,45.9,46.5,45.4,67,69,65,0.703,35.5,35.8,35.3,2.017,2.9,143,17,5.2,0.00009,0.00014,40.6,38.3,31,0,0,49.4,15.52,0.00,0.00
15min,AgWx,evansfrm,411,03FEB2018:21:00:00,44.9,12.75,44.9,44.8,45.1,46.0,44.3,70,72,67,0.716,35.7,36.1,35.3,4.516,3.1,168,18,4.5,0.00009,0.00013,40.6,38.1,31,0,0,49.0,15.52,0.00,0.00
15min,AgWx,evansfrm,411,03FEB2018:21:15:00,44.9,12.74,45.6,45.6,45.7,46.5,44.8,67,71,64,0.700,35.4,35.9,35.1,4.165,4.3,140,6.3,5.1,0.00015,0.00020,40.5,38.3,31,0,0,49.3,15.52,0.00,0.00
15min,AgWx,evansfrm,411,03FEB2018:21:30:00,44.8,12.73,45.5,45.6,45.5,46.0,45.3,67,67,66,0.684,35.2,35.4,34.8,3.244,4.3,147,7.3,5.2,0.00015,0.00020,40.5,38.1,31,0,0,49.0,15.52,0.00,0.00
15min,AgWx,evansfrm,411,03FEB2018:21:45:00,44.7,12.72,45.4,45.5,45.6,46.2,44.9,65,67,63,0.679,34.6,34.9,34.4,4.121,3.9,136,9.0,5.1,0.00014,0.00020,40.3,38.1,31,0,0,48.5,15.52,0.00,0.00
15min,AgWx,evansfrm,411,03FEB2018:22:00:00,44.5,12.72,45.8,45.7,45.7,46.0,45.4,65,65,64,0.673,34.5,34.7,34.3,4.56,4.4,123,6.1,5.4,0.00016,0.00022,40.3,37.9,31,0,0,48.7,15.52,0.00,0.00
15min,AgWx,evansfrm,411,03FEB2018:22:15:00,44.3,12.71,45.7,45.5,45.4,46.6,43.9,65,68,61,0.658,34.2,34.6,33.7,1.841,2.0,262,76,6.0,0.00006,0.00010,40.3,38.3,31,0,0,47.7,15.52,0.00,0.00
15min,AgWx,evansfrm,411,03FEB2018:22:30:00,43.6,12.71,44.1,44.4,44.3,45.6,43.3,67,69,64,0.656,33.9,34.2,33.6,2.28,1.7,46,77,3.0,0.00003,0.00005,40.2,38.1,31,0,0,46.0,15.52,0.00,0.00
15min,AgWx,evansfrm,411,03FEB2018:22:45:00,42.6,12.71,38.9,38.9,41.0,44.5,38.6,71,77,66,0.614,32.4,34.1,31.1,1.82,1.5,122,14,3.3,0.00001,0.00002,40.1,38.1,31,0,0,43.7,15.52,0.00,0.00
15min,AgWx,evansfrm,411,03FEB2018:23:00:00,41.4,12.71,40.7,41.4,39.2,41.4,37.5,77,80,71,0.632,32.5,33.6,31.3,4.012,2.4,117,11,4.4,0.00002,0.00004,40.0,38.1,31,0,0,41.7,15.52,0.00,0.00
15min,AgWx,evansfrm,411,03FEB2018:23:15:00,40.6,12.7,42.9,43.3,40.7,43.4,38.3,74,79,67,0.638,32.9,34.1,31.3,3.508,2.9,168,83,5.6,0.00005,0.00008,40.0,37.9,31,0,0,42.9,15.52,0.00,0.00
15min,AgWx,evansfrm,411,03FEB2018:23:30:00,40.1,12.7,39.9,39.8,40.4,43.2,39.4,73,75,67,0.620,32.3,33.0,31.9,3.025,2.4,85,58,4.4,0.00004,0.00006,39.8,38.1,31,0,0,43.0,15.52,0.00,0.00
15min,AgWx,evansfrm,411,03FEB2018:23:45:00,39.9,12.69,42.9,43.0,42.2,44.3,39.8,69,75,64,0.628,32.7,33.1,32.3,5.174,5.1,123,26,8.1,0.00014,0.00019,39.9,38.1,31,0,0,44.3,15.52,0.00,0.00
15min,AgWx,drainfrm,410,03FEB2018:00:00:00,40.4,12.43,42.6,43.3,45.2,49.4,42.1,71,81,59,0.732,36.1,36.6,35.4,1.929,5.5,313,68,12.8,0.00021,0.00027,35.8,35.2,64,0,100,47.6,14.60,0.00,0.00
15min,AgWx,drainfrm,410,03FEB2018:00:15:00,40.5,12.42,40.5,41.0,41.2,43.3,39.8,84,89,77,0.734,36.7,37.0,36.4,3.771,5.2,357,27,9.9,0.00010,0.00013,35.7,34.2,64,0,100,44.3,14.60,0.00,0.00
15min,AgWx,drainfrm,410,03FEB2018:00:30:00,40.4,12.42,39.8,40.4,40.6,41.0,39.9,86,88,84,0.740,36.8,37.2,36.5,2.039,3.5,337,36,6.8,0.00007,0.00009,35.6,34.3,64,0,100,44.2,14.60,0.00,0.00
15min,AgWx,drainfrm,410,03FEB2018:00:45:00,40.2,12.41,39.4,39.8,40.4,40.8,39.8,86,88,85,0.730,36.6,36.9,36.4,1.666,2.6,357,25,4.6,0.00006,0.00008,35.7,34.7,64,0,100,44.4,14.60,0.00,0.00
15min,AgWx,drainfrm,410,03FEB2018:01:00:00,40.0,12.41,40.4,41.0,40.4,41.6,39.5,86,89,81,0.725,36.4,36.7,36.1,2.696,3.9,306,12,6.0,0.00007,0.00010,35.7,35.1,64,0,100,44.1,14.60,0.00,0.00
15min,AgWx,drainfrm,410,03FEB2018:01:15:00,39.7,12.41,41.0,42.0,40.9,42.2,40.3,83,87,80,0.728,36.3,36.7,35.8,4.823,3.3,325,21,6.1,0.00008,0.00011,35.7,34.7,64,0,100,44.0,14.60,0.00,0.00
15min,AgWx,drainfrm,410,03FEB2018:01:30:00,39.7,12.41,39.7,40.1,40.9,41.9,40.0,86,91,81,0.761,36.9,37.6,36.4,1.951,4.5,356,7.3,6.0,0.00008,0.00011,35.6,34.3,64,0,100,43.5,14.60,0.00,0.00
15min,AgWx,drainfrm,410,03FEB2018:01:45:00,39.4,12.4,38.3,38.7,38.9,40.1,38.2,94,97,90,0.759,37.3,37.7,36.5,4.604,3.8,57,24,5.3,0.00003,0.00004,35.7,34.0,64,0,100,40.7,14.61,0.00,0.00
15min,AgWx,drainfrm,410,03FEB2018:02:00:00,38.9,12.4,38.8,39.3,38.9,39.5,38.5,94,95,91,0.745,37.2,37.6,36.9,0,4.6,27,9.5,6.6,0.00003,0.00004,35.7,34.3,64,0,100,41.0,14.61,0.00,0.00
15min,AgWx,drainfrm,410,03FEB2018:02:15:00,38.9,12.39,43.5,44.2,42.8,44.6,39.3,80,92,74,0.746,37.1,37.7,36.7,3.551,3.4,326,31,5.7,0.00010,0.00014,35.6,35.6,64,0,100,44.3,14.61,0.00,0.00
15min,AgWx,drainfrm,410,03FEB2018:02:30:00,39.1,12.4,40.1,41.4,43.3,44.4,41.3,79,85,75,0.751,37.2,37.6,36.7,3.99,4.0,3.6,47,5.2,0.00012,0.00016,35.6,34.7,64,0,100,44.9,14.61,0.00,0.00
15min,AgWx,drainfrm,410,03FEB2018:02:45:00,39.0,12.39,40.5,41.3,40.7,41.5,40.3,88,89,84,0.752,37.3,37.5,37.0,4.867,3.3,83,12,4.9,0.00006,0.00008,35.7,35.6,64,0,100,42.7,14.60,0.00,0.00
15min,AgWx,drainfrm,410,03FEB2018:03:00:00,39.0,12.39,41.8,42.6,41.4,42.7,40.6,87,89,83,0.773,37.7,38.1,37.3,4.56,4.9,95,11,6.5,0.00008,0.00010,35.6,34.3,64,0,100,43.3,14.60,0.00,0.00
15min,AgWx,drainfrm,410,03FEB2018:03:15:00,39.6,12.39,46.9,47.7,45.0,47.8,41.7,72,84,63,0.708,36.5,37.9,35.6,0.526,3.0,40,46,6.8,0.00014,0.00019,35.6,35.1,64,0,100,45.8,14.60,0.00,0.00
15min,AgWx,drainfrm,410,03FEB2018:03:30:00,40.4,12.39,46.5,47.4,47.1,47.8,46.4,65,67,63,0.711,35.8,36.1,35.6,0.68,2.0,197,78,6.2,0.00014,0.00020,35.6,34.5,64,0,100,47.2,14.60,0.00,0.00
15min,AgWx,drainfrm,410,03FEB2018:03:45:00,40.9,12.39,45.2,46.1,46.6,47.6,45.9,66,67,63,0.711,35.7,35.9,35.4,3.31,1.7,317,41,4.2,0.00012,0.00017,35.6,34.0,64,0,100,47.1,14.60,0.00,0.00
15min,AgWx,drainfrm,410,03FEB2018:04:00:00,40.9,12.38,46.4,47.5,45.9,47.5,44.9,67,70,62,0.697,35.7,35.9,35.1,2.192,3.0,13,31,5.3,0.00016,0.00023,35.6,34.0,64,0,100,46.7,14.60,0.00,0.00
15min,AgWx,drainfrm,410,03FEB2018:04:15:00,40.9,12.39,41.2,41.8,45.9,47.5,41.8,66,77,62,0.694,35.0,35.4,34.5,4.012,3.4,358,67,7.3,0.00019,0.00026,35.6,34.7,64,0,100,46.0,14.60,0.00,0.00
15min,AgWx,drainfrm,410,03FEB2018:04:30:00,40.5,12.39,43.5,44.3,43.7,45.5,41.7,71,78,67,0.685,35.0,35.6,34.4,3.617,3.8,313,29,7.1,0.00016,0.00021,35.5,34.7,64,0,100,44.4,14.60,0.00,0.00
15min,AgWx,drainfrm,410,03FEB2018:04:45:00,40.1,12.39,41.2,42.4,42.8,45.1,41.3,74,78,67,0.692,34.9,35.3,34.4,1.162,1.5,272,83,4.6,0.00008,0.00012,35.5,33.8,64,0,100,43.3,14.60,0.00,0.00
15min,AgWx,drainfrm,410,03FEB2018:05:00:00,39.5,12.38,39.7,40.3,42.1,42.9,40.1,75,81,73,0.687,34.9,35.2,34.3,2.74,1.5,218,47,3.3,0.00007,0.00010,35.6,35.2,64,0,100,42.7,14.61,0.00,0.00
15min,AgWx,drainfrm,410,03FEB2018:05:15:00,39.3,12.38,42.8,43.9,42.1,43.9,39.7,76,82,71,0.689,35.0,35.4,34.3,1.425,1.8,133,53,4.7,0.00008,0.00012,35.6,35.2,64,0,100,44.1,14.61,0.00,0.00
15min,AgWx,drainfrm,410,03FEB2018:05:30:00,39.4,12.38,44.2,45.1,44.3,45.8,42.8,70,73,66,0.686,35.0,35.4,34.6,4.867,3.0,313,69,8.6,0.00014,0.00020,35.5,34.3,64,0,100,45.2,14.60,0.00,0.00
15min,AgWx,drainfrm,410,03FEB2018:05:45:00,39.5,12.38,41.3,42.0,43.2,44.9,41.9,73,77,68,0.694,35.0,35.2,34.7,1.644,2.9,302,15,5.2,0.00013,0.00018,35.5,34.7,64,0,100,44.6,14.61,0.00,0.00
15min,AgWx,drainfrm,410,03FEB2018:06:00:00,39.5,12.38,43.1,43.7,42.5,44.3,41.1,75,79,70,0.692,35.1,35.2,34.7,6.664,4.0,10,33,8.3,0.00014,0.00018,35.4,34.5,64,0,100,45.2,14.61,0.00,0.00
15min,AgWx,drainfrm,410,03FEB2018:06:15:00,40.5,12.37,43.9,44.2,45.5,47.6,43.4,67,72,60,0.695,35.0,35.6,34.2,6.335,10.5,350,26,17.8,0.00031,0.00037,35.4,35.1,64,0,100,47.5,14.60,0.00,0.00
15min,AgWx,drainfrm,410,03FEB2018:06:30:00,41.1,12.38,43.9,44.6,43.7,44.7,42.9,73,75,71,0.711,35.5,35.8,35.2,3.617,4.5,39,23,7.8,0.00017,0.00022,35.4,34.5,64,0,100,46.4,14.60,0.00,0.00
15min,AgWx,drainfrm,410,03FEB2018:06:45:00,41.3,12.38,40.4,41.3,42.7,44.5,41.3,78,83,71,0.732,36.4,36.6,35.9,5.239,5.6,59,17,8.1,0.00014,0.00018,35.4,35.6,64,0,100,45.3,14.60,0.00,0.00
15min,AgWx,drainfrm,410,03FEB2018:07:00:00,40.9,12.38,41.3,42.3,40.8,42.3,39.8,85,88,80,0.738,36.6,37.0,36.3,2.258,3.2,92,28,6.7,0.00007,0.00010,35.4,34.0,64,0,100,43.6,14.60,0.00,0.00
15min,AgWx,drainfrm,410,03FEB2018:07:15:00,40.5,12.37,39.4,40.6,41.0,42.4,39.2,84,88,80,0.731,36.4,36.9,35.7,1.907,1.7,216,45,2.6,0.00005,0.00008,35.4,33.8,64,0,100,43.5,14.60,0.00,0.00
15min,AgWx,drainfrm,410,03FEB2018:07:30:00,39.7,12.37,38.2,38.8,39.6,41.0,38.7,86,88,83,0.707,35.8,36.5,35.1,1.6,3.4,212,17,5.0,0.00007,0.00009,35.3,34.3,64,1,100,41.6,14.60,0.00,0.00
15min,AgWx,drainfrm,410,03FEB2018:07:45:00,38.6,12.37,37.0,37.9,38.0,38.8,37.6,91,92,89,0.705,35.5,35.7,35.1,1.03,1.2,208,30,2.4,0.00003,0.00004,35.3,35.6,64,3,100,39.4,14.60,0.00,0.00
15min,AgWx,drainfrm,410,03FEB2018:08:00:00,37.9,12.38,37.2,37.7,37.9,38.2,37.6,91,92,90,0.700,35.5,35.8,35.3,1.359,2.2,203,5.8,3.5,-0.00030,-0.00030,35.4,34.3,64,18,100,40.3,14.60,0.00,0.00